Date,TemperatureHighF,TemperatureAvgF,TemperatureLowF,DewpointHighF,DewpointAvgF,DewpointLowF,HumidityHigh,HumidityAvg,HumidityLow,PressureMaxIn,PressureMinIn,WindSpeedMaxMPH,WindSpeedAvgMPH,GustSpeedMaxMPH,PrecipitationSumIn
2013-1-1,34,28,24,33,22,17,97,77,58,30.23,30.09,4,2,14,0.00
2013-1-2,25,24,22,19,17,16,82,76,72,30.35,30.18,5,3,14,0.01
2013-1-3,32,25,20,28,20,14,91,78,61,30.34,30.19,8,4,22,0.00
2013-1-4,37,31,29,26,23,19,89,73,48,30.27,29.92,9,6,24,0.00
2013-1-5,37,31,29,27,25,23,87,78,63,30.08,29.84,7,4,17,0.00
2013-1-6,36,35,33,34,31,27,100,85,71,29.93,29.69,6,4,15,0.11
2013-1-7,37,32,28,33,26,23,95,79,63,30.18,29.93,8,3,20,0.01
2013-1-8,45,36,29,29,24,22,77,64,43,30.06,29.97,6,3,21,0.00
2013-1-9,52,42,35,40,31,28,81,66,50,30.21,29.85,12,6,32,0.02
2013-1-10,51,36,27,36,30,23,100,80,45,30.37,30.04,2,0,8,0.00
2013-1-11,52,47,44,50,38,20,97,74,35,30.04,29.59,10,6,107,0.14
2013-1-12,64,55,48,54,51,47,100,89,69,29.77,29.69,7,4,19,0.00
2013-1-13,67,56,40,59,52,39,100,88,69,29.68,29.52,10,4,24,0.07
2013-1-14,40,32,28,39,27,22,100,82,70,30.19,29.69,7,1,22,0.07
2013-1-15,39,29,26,24,21,20,83,73,49,30.18,29.88,2,0,8,0.00
2013-1-16,39,33,28,31,26,22,84,76,58,29.88,29.60,9,2,17,0.00
2013-1-17,36,32,24,31,27,16,97,80,66,29.95,29.70,8,3,21,0.00
2013-1-18,35,25,19,18,13,8,76,60,49,30.23,29.81,13,5,27,0.00
2013-1-19,51,44,35,30,24,17,49,44,34,29.82,29.42,12,8,30,0.00
2013-1-20,49,31,21,33,20,12,93,64,45,29.88,29.35,16,7,36,0.00
2013-1-21,23,19,13,19,16,11,96,89,65,29.86,29.64,10,3,20,0.00
2013-1-22,13,9,6,11,5,0,92,83,71,29.97,29.73,9,6,23,0.00
2013-1-23,15,11,9,11,6,1,91,78,64,29.99,29.82,5,4,18,0.00
2013-1-24,27,16,9,12,8,1,92,72,42,30.30,29.82,4,1,14,0.00
2013-1-25,19,14,10,14,9,6,87,80,66,30.26,29.80,3,1,11,0.00
2013-1-26,30,22,16,21,17,13,91,81,67,30.19,29.83,4,2,12,0.00
2013-1-27,41,28,20,23,19,16,88,68,44,30.29,30.06,3,1,11,0.01
2013-1-28,47,39,30,47,39,20,100,97,61,30.06,29.65,8,4,24,0.09
2013-1-29,62,48,36,56,48,36,100,97,75,29.81,29.42,8,3,25,0.65
2013-1-30,66,60,39,58,53,38,99,78,64,29.42,28.89,11,7,30,0.28
2013-1-31,39,27,20,38,23,14,100,85,64,29.56,28.97,15,9,40,0.06
2013-2-1,22,18,14,18,12,8,95,76,60,30.00,29.55,9,6,24,0.00
2013-2-2,21,17,12,20,12,5,95,81,68,30.00,29.72,8,4,21,0.00
2013-2-3,24,20,17,20,17,-28,97,89,10,29.73,29.56,97,4,15,0.00
2013-2-4,25,20,18,20,16,8,93,82,64,29.77,29.65,7,2,16,0.00
2013-2-5,34,25,20,23,20,18,95,81,57,29.68,29.60,3,1,10,0.05
2013-2-6,34,25,13,27,18,10,95,76,50,30.11,29.67,5,2,17,0.01
2013-2-7,48,30,12,28,21,10,90,68,42,30.08,29.69,8,2,18,0.00
2013-2-8,37,30,19,37,27,15,100,89,71,29.95,29.50,8,2,24,0.35
2013-2-9,44,21,12,22,16,-9,96,80,56,30.17,29.96,13,0,110,0.00
2013-2-10,57,36,18,25,16,10,83,51,15,30.11,29.61,9,3,24,0.04
2013-2-11,56,40,33,45,34,24,96,79,47,29.62,29.39,15,8,34,0.00
2013-2-12,34,31,30,30,27,26,100,85,74,29.80,29.60,10,5,30,0.00
2013-2-13,44,32,26,29,26,23,91,77,52,29.68,29.51,3,1,10,0.00
2013-2-14,40,33,24,36,29,22,95,85,68,29.65,29.54,9,4,24,0.02
2013-2-15,38,32,25,30,25,14,86,73,59,29.85,29.59,11,5,28,0.00
2013-2-16,32,24,14,21,13,7,88,64,38,29.85,29.70,5,2,15,0.00
2013-2-17,24,20,16,16,12,8,90,71,52,29.99,29.70,6,3,18,0.00
2013-2-18,44,27,11,28,14,6,80,58,34,30.03,29.54,12,3,27,0.00
2013-2-19,46,33,21,40,29,19,100,88,54,29.63,29.34,10,7,32,0.22
2013-2-20,22,20,16,20,16,12,100,87,69,29.92,29.63,8,5,23,0.00
2013-2-21,29,21,17,18,15,13,87,78,59,30.15,29.90,6,3,18,0.00
2013-2-22,36,29,16,34,24,13,92,84,64,30.09,29.70,7,3,22,0.08
2013-2-23,39,33,30,33,29,24,94,85,71,29.73,29.65,6,3,17,0.01
2013-2-24,32,29,26,30,25,22,100,86,79,29.90,29.64,7,3,17,0.00
2013-2-25,44,31,23,30,24,20,100,77,48,30.00,29.87,4,1,9,0.00
2013-2-26,45,35,24,37,28,-22,100,77,10,29.91,29.36,14,2,17,0.71
2013-2-27,39,37,33,38,35,32,100,92,84,29.96,29.29,6,4,19,0.06
2013-2-28,125,34,32,100,33,31,100,98,67,30.05,29.88,10,2,14,0.11
2013-3-1,32,28,26,32,25,22,100,87,81,30.22,30.05,0,0,0,0.00
2013-3-2,26,25,24,24,22,20,93,87,82,30.21,30.17,0,0,3,0.00
2013-3-3,28,25,22,24,21,18,95,87,76,30.23,30.15,6,1,15,0.00
2013-3-4,34,25,23,26,21,20,94,85,73,30.33,30.22,6,3,20,0.00
2013-3-5,42,28,16,28,23,14,97,82,50,30.36,30.04,7,2,15,0.02
2013-3-6,36,31,26,34,28,24,99,90,85,30.18,29.92,4,2,17,0.04
2013-3-7,37,33,32,37,33,30,100,98,92,30.15,29.96,4,1,12,0.04
2013-3-8,47,35,27,35,30,22,100,84,40,30.26,30.14,4,1,14,0.00
2013-3-9,51,36,23,37,30,23,100,80,45,30.26,29.96,4,1,11,0.01
2013-3-10,73,57,48,37,29,22,44,34,26,29.96,29.75,8,5,27,0.00
2013-3-11,62,56,43,46,34,30,100,44,33,29.75,29.44,8,5,27,0.35
2013-3-12,43,36,33,43,32,26,100,85,75,29.79,29.58,8,5,21,0.02
2013-3-13,34,31,26,30,25,16,95,78,57,29.91,29.70,10,5,24,0.00
2013-3-14,34,29,25,22,19,15,81,67,57,30.01,29.91,8,4,23,0.00
2013-3-15,35,32,26,33,28,19,100,87,67,29.91,29.68,8,4,21,0.08
2013-3-16,32,29,22,32,25,19,99,86,75,29.84,29.59,5,2,14,0.00
2013-3-17,37,29,21,27,21,15,96,71,45,30.11,29.84,5,2,12,0.01
2013-3-18,37,31,20,35,25,13,95,79,63,30.08,29.44,10,3,32,0.13
2013-3-19,38,30,26,38,28,20,100,90,73,29.74,29.48,10,6,27,0.06
2013-3-20,32,28,24,26,21,18,94,76,60,29.74,29.69,8,5,23,0.00
2013-3-21,28,24,19,27,22,16,100,92,68,29.69,29.63,8,4,24,0.00
2013-3-22,30,28,26,26,24,22,100,87,79,29.85,29.67,6,4,18,0.00
2013-3-23,130,33,29,100,26,24,88,77,61,29.91,29.82,29,2,29,0.02
2013-3-24,39,30,20,30,24,19,100,80,57,29.90,29.45,6,2,17,0.00
2013-3-25,39,33,28,33,29,25,100,87,68,29.62,29.39,6,3,15,0.01
2013-3-26,43,36,31,35,32,30,97,84,70,29.88,29.62,7,3,18,0.00
2013-3-27,38,34,33,34,31,28,100,88,71,29.96,29.85,8,4,19,0.06
2013-3-28,38,35,32,36,33,31,100,93,79,30.08,29.94,5,2,14,0.11
2013-3-29,51,41,34,35,31,24,83,68,47,30.08,30.02,5,2,13,0.01
2013-3-30,58,42,26,29,24,21,86,53,26,30.07,29.84,3,1,9,0.00
2013-3-31,57,48,43,46,33,22,100,59,36,29.84,29.47,8,4,17,0.04
2013-4-1,48,36,30,42,26,16,97,69,40,29.87,29.46,8,4,24,0.07
2013-4-2,37,31,25,24,18,14,88,60,39,30.01,29.86,9,5,27,0.00
2013-4-3,39,31,24,22,18,15,77,59,40,30.27,30.00,6,3,18,0.00
2013-4-4,54,36,23,24,17,5,82,51,19,30.22,29.78,4,1,12,0.00
2013-4-5,47,39,32,32,26,13,75,59,34,30.04,29.73,6,2,17,0.00
2013-4-6,53,40,22,30,22,12,93,55,19,30.13,29.76,6,2,19,0.00
2013-4-7,69,55,38,47,34,14,90,48,22,29.88,29.59,10,6,32,0.00
2013-4-8,72,55,32,53,42,31,100,66,39,29.91,29.63,8,2,22,0.00
2013-4-9,66,51,43,53,44,41,100,79,58,29.98,29.68,12,3,30,0.09
2013-4-10,53,44,39,53,44,38,100,99,95,29.82,29.67,6,2,16,0.87
2013-4-11,40,38,34,40,38,34,100,99,97,29.87,29.53,8,4,21,0.13
2013-4-12,56,41,37,56,40,34,100,94,76,29.66,29.30,10,4,25,0.19
2013-4-13,45,40,37,38,35,31,100,83,60,29.83,29.65,7,5,23,0.11
2013-4-14,49,42,37,35,32,28,86,70,47,29.98,29.83,5,2,14,0.01
2013-4-15,79,62,39,51,44,33,80,52,31,29.89,29.79,8,4,24,0.00
2013-4-16,70,56,46,61,52,46,100,86,65,30.06,29.79,8,4,27,0.32
2013-4-17,58,50,41,46,39,30,99,68,37,30.18,29.91,6,2,16,0.01
2013-4-18,88,71,44,63,56,38,89,61,39,29.97,29.50,11,5,27,0.00
2013-4-19,72,56,41,61,47,29,100,74,58,29.65,29.21,12,6,31,0.21
2013-4-20,42,37,32,34,27,21,100,69,47,30.26,29.64,10,5,24,0.06
2013-4-21,47,37,24,36,26,22,97,68,39,30.48,30.26,5,2,17,0.00
2013-4-22,67,52,32,34,29,24,87,43,26,30.33,30.10,7,3,19,0.00
2013-4-23,75,59,43,40,34,25,65,41,23,30.11,29.73,7,3,21,0.00
2013-4-24,64,50,35,56,43,33,100,81,32,29.96,29.52,10,5,24,0.51
2013-4-25,57,44,35,41,35,28,100,74,36,30.19,29.96,7,3,20,0.02
2013-4-26,59,47,32,42,32,25,100,62,27,30.32,30.18,3,1,12,0.00
2013-4-27,71,56,40,41,33,27,74,44,21,30.24,29.99,5,1,12,0.00
2013-4-28,68,59,53,54,46,35,92,65,40,29.99,29.75,6,4,20,0.12
2013-4-29,68,58,52,58,53,48,100,85,66,29.85,29.74,9,3,26,0.02
2013-4-30,78,66,56,57,54,51,93,69,41,30.00,29.84,6,3,21,0.00
2013-5-1,80,67,58,53,51,41,80,59,35,30.14,30.00,6,3,19,0.00
2013-5-2,81,68,58,45,37,26,58,33,15,30.20,30.04,6,3,19,0.00
2013-5-3,86,70,59,45,39,31,50,34,18,30.09,29.97,7,4,21,0.00
2013-5-4,80,65,53,45,38,18,72,41,10,30.06,29.95,7,3,24,0.00
2013-5-5,78,64,47,49,41,21,84,47,18,30.02,29.87,6,2,21,0.00
2013-5-6,75,64,53,50,34,16,71,36,11,29.98,29.86,6,3,21,0.48
2013-5-7,80,67,54,56,53,50,87,62,38,29.94,29.82,6,2,17,0.00
2013-5-8,74,63,56,61,55,52,100,78,53,29.87,29.80,2,0,8,0.34
2013-5-9,81,64,55,61,55,47,100,77,39,29.84,29.77,3,1,9,0.13
2013-5-10,78,65,60,64,55,42,100,74,48,29.81,29.59,7,3,18,0.50
2013-5-11,61,48,44,61,47,43,100,97,84,29.70,29.60,6,3,18,0.05
2013-5-12,51,44,39,45,35,29,100,71,49,29.89,29.66,10,5,27,0.05
2013-5-13,51,42,37,34,30,25,77,61,47,30.03,29.87,5,3,17,0.01
2013-5-14,54,48,35,44,36,28,97,67,40,30.01,29.70,6,3,21,0.19
2013-5-15,82,66,51,61,50,41,87,59,37,29.70,29.50,12,5,36,0.00
2013-5-16,79,65,51,56,47,39,95,58,24,29.86,29.61,6,1,17,0.00
2013-5-17,70,58,45,48,44,40,88,62,38,30.03,29.85,5,2,14,0.00
2013-5-18,77,65,55,53,48,43,85,57,34,30.04,29.93,5,1,17,0.00
2013-5-19,86,72,57,65,61,53,89,70,46,29.95,29.81,6,2,17,0.00
2013-5-20,94,77,64,70,65,60,92,69,40,29.88,29.69,4,2,17,0.00
2013-5-21,91,78,67,72,67,60,97,71,41,29.75,29.61,7,2,21,0.14
2013-5-22,91,78,68,69,65,59,93,65,37,29.67,29.52,9,3,22,0.02
2013-5-23,73,62,44,67,60,44,100,93,69,29.83,29.57,5,3,18,0.72
2013-5-24,54,45,40,45,38,35,100,79,54,30.12,29.83,4,3,17,0.09
2013-5-25,62,51,37,44,40,35,100,68,42,30.19,30.07,6,2,19,0.00
2013-5-26,68,54,37,52,39,32,100,63,30,30.16,30.08,4,2,12,0.00
2013-5-27,71,58,41,49,42,36,91,58,29,30.14,29.98,5,1,9,0.00
2013-5-28,82,67,54,69,62,47,100,85,60,29.98,29.80,7,3,17,0.54
2013-5-29,85,76,64,68,64,62,99,69,50,29.89,29.76,7,3,12,0.01
2013-5-30,92,79,70,72,66,61,89,65,47,30.00,29.89,4,2,12,0.02
2013-5-31,92,78,66,72,66,62,100,68,37,29.92,29.79,6,3,17,0.25
2013-6-1,89,75,66,72,68,64,100,80,53,29.85,29.62,8,4,25,1.03
2013-6-2,77,68,59,69,64,55,100,87,56,29.79,29.58,10,3,21,0.47
2013-6-3,68,56,48,55,46,43,91,71,44,29.94,29.79,3,1,12,0.00
2013-6-4,72,57,44,57,45,40,100,68,36,30.05,29.93,3,1,10,0.00
2013-6-5,75,62,46,55,49,43,96,66,35,30.05,29.83,6,2,20,0.00
2013-6-6,64,57,53,63,56,53,100,96,81,29.83,29.66,3,1,10,1.36
2013-6-7,60,55,52,59,55,52,100,98,90,29.74,29.68,3,1,12,0.04
2013-6-8,75,61,53,60,56,52,100,85,51,29.98,29.73,4,1,11,0.01
2013-6-9,81,67,50,60,55,50,100,69,42,30.05,29.89,4,1,11,0.00
2013-6-10,76,71,66,73,67,58,100,89,62,29.89,29.58,6,2,17,0.21
2013-6-11,73,64,61,67,64,61,100,97,78,29.74,29.59,5,3,18,0.72
2013-6-12,82,72,62,69,64,61,99,77,54,29.79,29.61,4,1,9,0.01
2013-6-13,69,63,56,69,62,56,100,96,72,29.69,29.32,5,2,16,0.70
2013-6-14,76,64,54,62,58,54,99,83,58,29.91,29.68,4,1,14,0.00
2013-6-15,84,68,54,59,55,43,100,67,32,29.98,29.83,4,2,14,0.00
2013-6-16,79,70,65,67,63,56,88,77,61,29.85,29.65,9,4,26,0.02
2013-6-17,88,74,65,67,60,54,100,64,33,29.83,29.73,4,2,13,0.00
2013-6-18,71,64,52,63,58,50,100,84,51,29.89,29.73,6,2,23,0.13
2013-6-19,75,62,49,64,50,43,100,71,34,30.05,29.89,4,1,14,0.00
2013-6-20,84,67,54,55,48,42,78,55,27,30.11,30.03,2,1,9,0.00
2013-6-21,90,72,52,62,53,43,92,56,26,30.14,29.99,2,1,8,0.00
2013-6-22,92,80,68,70,64,58,76,60,47,30.01,29.86,6,4,17,0.00
2013-6-23,91,82,74,73,69,66,81,65,45,29.95,29.87,6,2,17,0.00
2013-6-24,91,81,75,70,67,65,76,63,43,29.96,29.81,5,2,14,0.00
2013-6-25,87,77,70,71,68,66,97,76,55,29.84,29.71,8,4,27,0.01
2013-6-26,88,75,67,71,68,65,100,81,49,29.75,29.65,5,2,14,0.11
2013-6-27,76,71,67,74,70,67,100,97,88,29.66,29.51,2,1,8,0.66
2013-6-28,70,67,62,70,67,62,99,99,99,29.52,29.40,3,0,12,0.60
2013-6-29,80,71,64,68,65,63,100,82,58,30.11,29.91,2,1,10,0.45
2013-6-30,80,70,62,68,65,61,100,84,59,30.30,30.11,4,1,13,0.00
2013-7-1,72,67,64,68,66,64,100,96,82,30.44,30.28,5,2,16,0.17
2013-7-2,80,70,61,68,64,61,100,85,63,30.47,30.38,4,1,11,0.00
2013-7-3,90,77,66,75,71,66,100,83,54,30.56,30.45,6,2,14,0.47
2013-7-4,87,75,69,76,71,69,100,88,59,30.58,30.51,5,2,14,0.43
2013-7-5,84,75,70,76,71,68,100,87,63,30.54,30.48,6,1,15,0.09
2013-7-6,89,76,70,76,72,70,100,86,59,30.56,30.42,4,1,10,0.00
2013-7-7,83,76,71,73,70,66,100,83,65,30.48,30.38,6,3,21,0.11
2013-7-8,89,74,69,72,70,66,100,86,55,29.98,29.89,5,2,17,0.00
2013-7-9,87,75,69,76,72,69,100,91,67,29.95,29.80,5,2,15,0.18
2013-7-10,91,76,68,78,72,66,100,88,60,29.81,29.64,9,4,26,0.43
2013-7-11,82,71,61,69,61,58,100,73,51,29.92,29.78,3,1,11,0.01
2013-7-12,84,71,59,70,64,59,100,79,54,30.04,29.92,6,1,14,0.00
2013-7-13,84,73,61,71,66,58,100,78,57,30.13,30.03,3,1,10,0.00
2013-7-14,92,80,69,75,71,69,100,77,53,30.19,29.92,5,1,13,0.00
2013-7-15,94,82,72,78,74,71,100,80,56,29.99,29.92,2,1,8,0.00
2013-7-16,95,84,72,78,75,72,99,77,52,29.98,29.90,2,1,8,0.00
2013-7-17,95,84,74,80,76,74,100,77,53,29.95,29.81,5,2,13,0.00
2013-7-18,95,86,77,81,76,71,100,74,52,29.92,29.78,4,2,12,0.00
2013-7-19,95,86,79,77,74,67,82,68,50,29.79,29.55,8,5,24,0.00
2013-7-20,87,73,68,76,70,67,100,90,56,29.98,29.52,9,3,27,0.90
2013-7-21,86,75,65,71,67,62,99,77,49,30.06,29.98,3,1,10,0.00
2013-7-22,86,72,63,74,68,63,100,89,61,30.05,29.85,5,0,11,0.22
2013-7-23,87,73,66,75,68,60,100,85,56,29.87,29.73,4,1,17,0.05
2013-7-24,76,65,56,60,54,50,95,67,42,30.11,29.87,4,2,15,0.00
2013-7-25,80,67,54,56,53,48,85,63,39,30.20,30.11,5,1,14,0.00
2013-7-26,83,70,58,60,56,53,90,64,42,30.19,30.05,3,1,10,0.00
2013-7-27,75,68,64,70,64,58,100,85,66,30.05,29.89,5,2,16,0.41
2013-7-28,74,67,62,67,59,52,100,76,48,30.08,29.89,5,2,17,0.05
2013-7-29,76,64,58,60,57,54,100,79,54,30.25,30.07,6,2,14,0.04
2013-7-30,82,68,59,63,59,55,100,74,43,30.32,30.22,3,1,11,0.00
2013-7-31,86,71,59,66,61,55,91,72,48,30.24,29.98,4,1,11,0.00
2013-8-1,84,72,67,69,65,57,100,80,42,29.98,29.90,5,2,15,0.11
2013-8-2,84,72,63,67,63,58,99,76,46,30.02,29.94,5,3,16,0.00
2013-8-3,82,72,65,68,62,54,100,72,44,30.06,29.95,4,1,14,0.52
2013-8-4,78,69,61,62,57,52,82,68,53,30.18,30.05,4,2,17,0.00
2013-8-5,77,65,52,58,54,50,100,70,41,30.22,30.10,3,1,8,0.00
2013-8-6,86,71,60,64,59,54,89,66,39,30.12,30.03,4,2,13,0.00
2013-8-7,85,75,66,72,66,60,94,77,59,30.05,29.93,9,4,25,0.00
2013-8-8,89,77,71,76,73,68,100,87,62,30.04,29.96,9,2,17,0.00
2013-8-9,82,72,65,74,66,52,100,83,44,30.08,29.95,3,1,11,0.20
2013-8-10,83,72,60,64,58,51,96,64,38,30.21,30.08,3,1,11,0.00
2013-8-11,85,69,54,61,55,50,100,66,31,30.24,30.11,2,1,8,0.00
2013-8-12,79,68,63,71,63,55,100,83,60,30.14,29.92,3,1,11,0.22
2013-8-13,74,66,60,68,59,48,100,80,50,30.06,29.86,9,2,35,0.85
2013-8-14,75,64,57,56,53,50,90,70,45,30.22,30.04,6,2,17,0.00
2013-8-15,78,63,52,58,54,50,100,75,44,30.26,30.20,5,1,13,0.00
2013-8-16,82,67,53,59,55,52,100,71,38,30.29,30.21,3,1,11,0.00
2013-8-17,85,69,52,64,59,52,100,73,42,30.36,30.28,4,1,11,0.00
2013-8-18,85,72,60,66,61,56,91,71,49,30.32,30.19,5,1,13,0.00
2013-8-19,85,71,62,71,65,59,96,82,49,30.21,30.13,3,1,10,0.00
2013-8-20,89,73,61,72,63,58,92,72,42,30.25,30.16,4,1,12,0.00
2013-8-21,92,76,63,68,64,61,94,69,42,30.27,30.11,3,1,10,0.00
2013-8-22,86,76,69,74,70,65,100,82,64,30.14,30.03,6,2,14,0.00
2013-8-23,81,73,62,72,63,53,100,74,49,30.27,30.08,6,1,17,0.00
2013-8-24,82,69,59,62,57,53,91,66,44,30.42,30.28,3,1,11,0.00
2013-8-25,90,74,58,64,58,52,100,62,32,30.42,30.25,5,2,13,0.00
2013-8-26,89,77,69,71,65,60,100,68,50,30.27,29.88,7,4,18,0.63
2013-8-27,87,76,71,77,73,70,100,92,70,29.90,29.82,5,2,14,0.07
2013-8-28,86,76,70,78,73,70,100,92,69,29.88,29.75,6,1,16,0.06
2013-8-29,89,77,66,77,71,66,100,84,54,29.99,29.88,3,1,10,0.00
2013-8-30,89,78,66,74,70,66,100,78,52,29.95,29.70,5,1,11,0.00
2013-8-31,87,76,69,75,72,69,100,88,61,29.76,29.66,8,1,21,0.09
2013-9-1,86,74,66,75,70,66,99,91,59,29.76,29.68,3,1,8,0.37
2013-9-2,82,73,66,75,69,59,100,89,71,29.78,29.67,5,2,14,0.02
2013-9-3,67,64,60,63,60,57,100,85,74,29.95,29.77,3,1,11,0.02
2013-9-4,79,69,60,65,61,58,97,77,52,29.99,29.93,7,3,20,0.00
2013-9-5,75,66,54,65,53,48,90,64,40,30.16,29.93,3,1,13,0.00
2013-9-6,77,61,48,53,48,43,86,65,38,30.22,30.04,3,1,10,0.00
2013-9-7,81,66,56,69,57,46,100,74,41,30.04,29.83,6,2,16,0.01
2013-9-8,74,67,56,70,60,50,100,78,47,30.03,29.82,5,2,19,0.01
2013-9-9,80,66,54,72,60,49,100,82,61,30.03,29.91,5,3,17,0.12
2013-9-10,99,85,72,78,73,69,97,71,43,29.97,29.88,8,4,24,0.00
2013-9-11,95,85,70,77,74,69,99,71,47,29.99,29.84,6,4,19,0.38
2013-9-12,78,71,64,72,67,54,100,88,60,29.90,29.72,6,2,21,0.06
2013-9-13,64,59,53,58,52,45,90,78,66,29.99,29.75,4,2,20,0.00
2013-9-14,69,58,48,48,44,40,86,62,36,30.09,29.97,3,1,12,0.00
2013-9-15,72,59,48,60,50,42,100,72,47,30.10,29.92,5,2,14,0.17
2013-9-16,66,56,46,61,55,45,100,96,79,30.20,29.95,5,1,15,0.02
2013-9-17,72,55,38,54,47,38,100,78,45,30.30,30.11,3,1,11,0.00
2013-9-18,82,61,49,58,49,41,94,65,42,30.11,29.95,6,2,17,0.00
2013-9-19,82,67,56,68,60,52,100,80,54,29.97,29.85,6,2,15,0.00
2013-9-20,82,72,62,73,68,61,100,88,70,29.87,29.60,7,4,22,0.00
2013-9-21,73,64,58,72,63,53,100,96,81,29.65,29.50,4,1,21,1.97
2013-9-22,62,57,53,53,48,43,87,73,60,29.90,29.65,3,2,17,0.00
2013-9-23,69,54,43,49,46,43,100,75,43,30.02,29.90,2,1,10,0.00
2013-9-24,71,55,43,56,49,42,100,82,50,29.93,29.80,3,1,10,0.00
2013-9-25,76,58,44,56,51,44,99,80,45,29.91,29.83,3,0,10,0.00
2013-9-26,75,59,44,56,51,43,100,79,43,30.03,29.87,4,1,14,0.00
2013-9-27,73,61,48,59,54,47,100,82,58,30.14,30.02,5,1,14,0.00
2013-9-28,84,65,49,59,55,48,99,72,38,30.15,29.79,6,2,16,0.00
2013-9-29,78,65,55,63,56,50,87,74,55,29.90,29.76,7,4,20,0.00
2013-9-30,69,64,60,66,61,58,100,89,80,29.94,29.74,4,2,12,0.00
2013-10-1,82,68,60,66,62,59,100,85,55,29.99,29.90,4,2,14,0.00
2013-10-2,79,68,54,69,62,54,100,84,49,30.04,29.92,6,2,17,0.00
2013-10-3,83,64,51,72,60,48,100,88,63,30.04,29.93,3,1,11,0.40
2013-10-4,80,71,65,71,68,65,100,91,69,30.00,29.93,6,2,17,0.21
2013-10-5,81,69,63,72,67,63,100,94,69,30.01,29.90,3,1,9,0.57
2013-10-6,85,75,66,73,68,65,100,82,56,29.89,29.62,8,3,25,0.02
2013-10-7,69,56,50,68,52,44,100,86,57,29.99,29.63,10,4,26,0.93
2013-10-8,72,57,47,57,48,41,99,75,35,30.17,29.95,2,1,9,0.01
2013-10-9,77,59,50,54,47,43,100,67,32,30.22,30.10,4,2,14,0.00
2013-10-10,73,59,44,54,46,39,99,65,34,30.13,29.97,4,1,12,0.00
2013-10-11,76,58,46,55,48,44,100,75,35,30.00,29.94,5,1,12,0.00
2013-10-12,80,62,46,61,54,45,100,77,48,30.00,29.91,5,1,14,0.00
2013-10-13,74,65,60,66,58,52,100,79,63,30.12,29.97,6,3,20,0.06
2013-10-14,70,59,46,57,49,43,100,73,40,30.19,29.90,4,1,14,0.01
2013-10-15,76,60,45,62,56,44,100,86,59,29.90,29.55,7,2,20,0.00
2013-10-16,71,63,58,66,60,51,100,91,76,30.00,29.40,8,4,21,0.53
2013-10-17,70,56,50,55,51,49,100,87,51,30.01,29.84,6,2,17,0.46
2013-10-18,67,55,48,50,47,42,100,76,45,30.06,29.91,8,4,21,0.09
2013-10-19,58,51,44,52,46,43,100,84,63,30.01,29.80,8,4,18,0.58
2013-10-20,60,49,41,46,42,39,100,79,49,30.08,29.96,9,4,23,0.58
2013-10-21,68,57,50,55,43,39,100,61,39,30.08,29.92,8,5,24,0.04
2013-10-22,53,47,42,51,39,32,100,74,53,30.01,29.90,8,4,20,0.31
2013-10-23,52,42,38,44,38,29,100,87,55,29.96,29.86,5,2,17,0.25
2013-10-24,45,39,35,40,37,30,100,92,56,30.18,29.95,7,4,21,0.12
2013-10-25,54,44,40,42,38,32,100,80,52,30.36,30.18,6,3,20,0.08
2013-10-26,46,42,40,42,32,28,100,67,54,30.26,29.93,12,7,31,0.21
2013-10-27,51,45,40,42,37,33,96,73,54,30.17,30.00,5,2,17,0.00
2013-10-28,59,46,40,45,38,31,86,73,59,30.46,30.16,6,2,14,0.00
2013-10-29,60,41,31,40,35,31,100,79,40,30.52,30.36,5,0,10,0.00
2013-10-30,71,51,38,46,40,35,92,69,36,30.37,30.15,3,1,9,0.00
2013-10-31,68,61,53,63,59,46,100,92,74,30.15,29.42,14,7,40,0.63
2013-11-1,63,57,50,61,52,44,100,84,68,29.96,29.32,13,6,34,0.37
2013-11-2,50,47,41,50,45,41,100,96,85,30.29,29.92,5,3,16,0.81
2013-11-3,48,38,29,41,30,24,100,73,45,30.77,30.29,4,2,12,0.00
2013-11-4,47,37,28,24,21,16,82,54,31,30.85,30.66,6,2,22,0.00
2013-11-5,56,49,41,36,31,22,59,51,43,30.71,30.56,9,4,23,0.00
2013-11-6,69,57,47,60,45,28,100,66,43,30.56,30.14,10,6,27,0.37
2013-11-7,56,44,37,55,39,27,99,86,59,30.36,30.15,7,3,21,0.50
2013-11-8,50,42,38,36,31,27,82,65,48,30.04,29.93,6,3,24,0.06
2013-11-9,56,46,36,48,33,26,94,62,42,30.03,29.64,10,5,26,0.12
2013-11-10,52,46,40,48,38,30,100,75,61,30.02,29.63,8,4,27,0.33
2013-11-11,46,40,29,41,34,29,99,81,55,30.02,29.78,12,4,32,0.44
2013-11-12,42,32,29,30,25,17,99,75,56,30.22,29.95,6,2,23,0.04
2013-11-13,40,34,31,28,23,18,79,63,49,30.25,29.99,9,4,24,0.04
2013-11-14,54,42,33,23,20,16,58,41,23,30.00,29.86,9,7,26,0.00
2013-11-15,56,49,42,31,23,18,51,37,26,29.93,29.85,8,4,20,0.00
2013-11-16,63,53,43,48,41,31,80,64,51,30.01,29.74,7,4,23,0.00
2013-11-17,66,60,52,61,55,46,100,85,58,29.74,29.17,15,9,40,0.50
2013-11-18,55,45,38,45,36,26,79,71,62,29.83,29.28,16,8,38,0.00
2013-11-19,40,36,29,29,27,25,92,70,58,30.21,29.83,6,2,20,0.00
2013-11-20,54,38,23,28,19,8,100,54,16,30.27,30.12,7,2,23,0.00
2013-11-21,44,40,38,43,31,15,100,73,38,30.17,29.99,8,5,25,0.15
2013-11-22,49,44,34,48,43,28,100,95,78,30.06,29.85,7,3,20,0.17
2013-11-23,36,30,21,31,24,13,100,78,62,30.09,29.91,8,5,30,0.00
2013-11-24,29,23,20,21,14,11,85,68,52,30.25,30.09,6,4,24,0.00
2013-11-25,34,28,18,27,16,11,94,63,39,30.19,29.66,9,6,23,0.00
2013-11-26,36,33,32,33,29,23,100,86,65,29.67,29.34,7,3,19,0.00
2013-11-27,34,30,26,34,27,18,100,86,68,29.57,29.27,8,4,31,0.00
2013-11-28,30,26,24,25,22,18,100,83,72,29.92,29.57,6,3,17,0.00
2013-11-29,44,28,22,30,24,17,100,85,51,30.19,29.92,3,0,8,0.07
2013-11-30,42,31,23,27,22,18,83,70,49,30.16,29.70,10,5,33,0.00
2013-12-1,42,38,32,32,30,27,79,73,67,29.70,29.49,6,3,17,0.00
2013-12-2,40,36,27,37,33,27,100,87,77,29.48,29.40,2,1,7,0.00
2013-12-3,51,34,25,41,31,25,100,88,54,29.49,29.42,3,0,8,0.00
2013-12-4,61,51,44,46,43,39,87,75,54,29.51,29.33,8,3,26,0.00
2013-12-5,65,50,34,58,45,33,99,83,74,29.62,29.27,10,6,31,0.06
2013-12-6,36,32,27,34,29,26,100,87,72,29.82,29.59,3,1,11,0.06
2013-12-7,30,26,24,29,20,15,100,76,66,30.10,29.81,5,3,14,0.00
2013-12-8,30,26,21,25,19,16,86,75,60,30.10,29.59,6,2,17,0.00
2013-12-9,37,34,28,37,30,20,100,86,71,29.60,29.40,9,5,24,0.04
2013-12-10,30,25,22,24,18,7,100,76,42,29.66,29.46,11,6,30,0.00
2013-12-11,25,22,19,23,18,10,100,86,66,29.87,29.66,8,6,21,0.00
2013-12-12,20,18,15,15,9,4,96,70,54,29.90,29.67,8,5,25,0.00
2013-12-13,29,23,19,24,19,10,100,84,68,29.83,29.65,10,4,20,0.00
2013-12-14,32,24,17,32,24,15,100,98,88,29.83,29.19,4,1,12,0.00
2013-12-15,32,25,18,31,25,16,100,99,90,29.48,29.16,9,3,24,0.00
2013-12-16,22,17,6,20,16,5,100,93,77,29.67,29.48,7,2,18,0.00
2013-12-17,29,25,16,27,23,12,100,92,79,29.56,29.41,8,4,21,0.00
2013-12-18,30,28,26,28,24,18,100,88,70,29.63,29.48,8,5,21,0.00
2013-12-19,48,40,27,36,29,18,77,65,54,29.55,29.44,9,5,24,0.00
2013-12-20,54,47,43,53,45,35,100,92,69,29.48,29.31,11,7,28,0.48
2013-12-21,58,47,35,58,47,35,99,99,99,29.36,29.17,11,4,26,1.48
2013-12-22,62,43,33,60,42,33,100,98,77,29.51,29.02,14,5,39,0.43
2013-12-23,40,34,30,39,31,22,100,90,69,29.80,29.50,7,4,21,0.02
2013-12-24,30,22,18,29,20,16,100,92,73,30.02,29.75,6,3,18,0.00
2013-12-25,27,21,15,20,15,12,94,76,65,30.01,29.68,7,3,17,0.00
2013-12-26,32,28,26,31,26,20,100,91,76,29.83,29.58,8,5,23,0.00
2013-12-27,39,32,26,34,28,20,100,85,72,29.83,29.66,8,4,21,0.02
2013-12-28,54,45,39,37,33,30,72,61,52,29.67,29.50,9,5,24,0.00
2013-12-29,45,41,28,42,32,26,100,74,49,29.50,29.19,8,4,21,0.01
2013-12-30,28,20,18,27,15,10,100,80,69,29.75,29.41,6,3,17,0.00
2013-12-31,22,19,17,21,17,11,100,90,73,29.79,29.53,11,5,27,0.00
2014-1-1,23,19,16,20,18,14,100,95,85,29.89,29.70,5,2,14,0.00
2014-1-2,16,14,9,15,13,9,100,97,91,29.71,29.41,8,5,23,0.00